TimeMST,TemperatureF,Dew PointF,Humidity,Sea Level PressureIn,VisibilityMPH,Wind Direction,Wind SpeedMPH,Gust SpeedMPH,PrecipitationIn,Events,Conditions,WindDirDegrees,DateUTC
12:53 AM,35.1,21.0,57,29.80,10.0,East,9.2,-,N/A,,Partly Cloudy,100,2012-12-07 07:53:00
1:53 AM,35.1,21.0,57,29.78,10.0,SSE,9.2,17.3,N/A,,Partly Cloudy,160,2012-12-07 08:53:00
2:53 AM,35.1,19.9,54,29.77,10.0,SSW,11.5,-,N/A,,Clear,200,2012-12-07 09:53:00
3:53 AM,34.0,21.0,59,29.76,10.0,Calm,Calm,-,N/A,,Clear,0,2012-12-07 10:53:00
4:53 AM,30.0,21.0,69,29.82,10.0,NNW,15.0,23.0,N/A,,Clear,340,2012-12-07 11:53:00
5:53 AM,30.9,23.0,72,29.87,10.0,NW,13.8,-,N/A,,Overcast,320,2012-12-07 12:53:00
7:53 AM,30.9,23.0,72,29.95,10.0,West,4.6,-,N/A,,Overcast,280,2012-12-07 14:53:00
8:53 AM,32.0,24.1,73,29.97,10.0,WNW,6.9,-,N/A,,Overcast,290,2012-12-07 15:53:00
9:53 AM,33.1,23.0,66,29.98,10.0,WNW,5.8,-,N/A,,Overcast,290,2012-12-07 16:53:00
10:53 AM,36.0,23.0,59,29.94,10.0,SW,9.2,-,N/A,,Overcast,220,2012-12-07 17:53:00
11:53 AM,39.0,19.9,46,29.92,10.0,WNW,12.7,-,N/A,,Overcast,290,2012-12-07 18:53:00
12:53 PM,39.0,21.0,49,29.90,10.0,West,9.2,-,N/A,,Overcast,280,2012-12-07 19:53:00
1:53 PM,39.0,21.0,49,29.90,10.0,NNW,8.1,-,N/A,,Mostly Cloudy,340,2012-12-07 20:53:00
2:53 PM,39.0,21.0,49,29.90,10.0,Variable,3.5,-,N/A,,Clear,0,2012-12-07 21:53:00
3:53 PM,36.0,24.1,62,29.91,10.0,West,6.9,-,N/A,,Partly Cloudy,270,2012-12-07 22:53:00
4:53 PM,33.1,25.0,72,29.95,10.0,NW,8.1,-,N/A,,Clear,310,2012-12-07 23:53:00
6:53 PM,28.0,23.0,81,29.99,10.0,Calm,Calm,-,N/A,,Clear,0,2012-12-08 01:53:00
7:53 PM,23.0,19.9,88,30.02,10.0,SSE,4.6,-,N/A,,Clear,150,2012-12-08 02:53:00
8:53 PM,26.1,21.9,84,30.00,10.0,Calm,Calm,-,N/A,,Clear,0,2012-12-08 03:53:00
9:53 PM,23.0,19.9,88,29.99,10.0,SSE,5.8,-,N/A,,Clear,150,2012-12-08 04:53:00
10:53 PM,19.0,16.0,88,29.96,10.0,East,5.8,-,N/A,,Clear,100,2012-12-08 05:53:00
11:53 PM,21.0,18.0,88,29.92,10.0,SE,9.2,-,N/A,,Mostly Cloudy,130,2012-12-08 06:53:00